This is the latest recevied weather packets stored in our database for station/object CE3MXM-13. If no packets are shown the sender has not sent any weather packets the latest 1 day(s).
| Time | Temp. | Humidity | Pressure | Rain* | Wind** | Luminosity | Snow |
|---|---|---|---|---|---|---|---|
| 1778031316 | 11.67° C | 86% | 1011.7 hPa | - | 0 m/s | - | - |
| 1778031016 | 12.22° C | 86% | 1011.6 hPa | - | 0 m/s | - | - |
| 1778030716 | 12.22° C | 85% | 1011.6 hPa | - | 0 m/s | - | - |
| 1778030416 | 12.22° C | 85% | 1011.6 hPa | - | 0 m/s | - | - |
| 1778030128 | 12.22° C | 84% | 1011.5 hPa | - | 0 m/s | - | - |
| 1778029816 | 12.78° C | 84% | 1011.5 hPa | - | 0 m/s | - | - |
| 1778029516 | 12.78° C | 84% | 1011.6 hPa | - | 0 m/s | - | - |
| 1778029215 | 12.78° C | 83% | 1011.7 hPa | - | 0 m/s | - | - |
| 1778028915 | 12.78° C | 83% | 1011.7 hPa | - | 0 m/s | - | - |
| 1778028615 | 12.78° C | 83% | 1011.8 hPa | - | 0 m/s | - | - |
| 1778028315 | 13.33° C | 82% | 1012 hPa | - | 0 m/s | - | - |
| 1778028015 | 13.33° C | 81% | 1011.7 hPa | - | 0 m/s | - | - |
| 1778027715 | 13.33° C | 80% | 1011.8 hPa | - | 0 m/s | - | - |
| 1778027415 | 13.33° C | 80% | 1011.6 hPa | - | 0 m/s | - | - |
| 1778027114 | 13.89° C | 79% | 1011.6 hPa | - | 0 m/s | - | - |
| 1778026815 | 13.89° C | 78% | 1011.7 hPa | - | 0 m/s | - | - |
| 1778026514 | 13.89° C | 78% | 1011.5 hPa | - | 0 m/s | - | - |
| 1778026215 | 14.44° C | 77% | 1011.3 hPa | - | 0 m/s | - | - |
| 1778025914 | 14.44° C | 77% | 1011.4 hPa | - | 0.89 m/s, 286° | - | - |
| 1778025614 | 14.44° C | 78% | 1011.2 hPa | - | 1.79 m/s, 229° | - | - |
| 1778025314 | 13.89° C | 78% | 1011.1 hPa | - | 7.6 m/s, 326° | - | - |
| 1778025014 | 13.89° C | 78% | 1011 hPa | - | 0 m/s | - | - |
| 1778024714 | 14.44° C | 77% | 1011.1 hPa | - | 0.45 m/s, 236° | - | - |
| 1778024414 | 14.44° C | 77% | 1011.1 hPa | - | 0 m/s | - | - |
| 1778024113 | 14.44° C | 77% | 1011.1 hPa | - | 2.68 m/s, 313° | - | - |
* Rain since midnight (hover to see other rain measurements)
** Current wind speed in m/s (hover to see current wind gust speed)